This demonstration page uses our WeatherBlox Daily Observations layout. Learn more.

Hourly Observations for February 3, 2017

Temp ( °F °C ) Dew Point ( °F °C ) Humidity (%) Winds ( mph kmh ) Pressure ( in mb ) Visibility ( mi km ) Precip ( " mm )
12:15 am 00:15 Cloudy with Light Snow 20 -6.5 18 -7.7 91 91 ENE 5 7 30.59 1036 1.75 2.816345 0 0
12:35 am 00:35 Cloudy with Light Snow 20 -6.5 18 -7.7 91 91 ENE 6 9 30.59 1036 3 4.82802 0 0
12:55 am 00:55 Cloudy with Light Snow 20 -6.5 18 -7.8 91 91 ENE 6 9 30.59 1036 5 8.0467 0 0
1:15 am 01:15 Cloudy with Light Snow 20 -6.6 18 -8 90 90 NE 6 9 30.59 1036 5 8.0467 0 0
1:35 am 01:35 Cloudy with Light Snow 20 -6.8 17 -8.2 90 90 ENE 6 9 30.59 1036 5 8.0467 0 0
1:55 am 01:55 Cloudy with Light Snow 20 -6.8 17 -8.1 91 91 NE 5 7 30.62 1037 2.5 4.02335 0 0
2:15 am 02:15 Cloudy with Light Snow 19 -7 17 -8.2 91 91 NE 6 9 30.62 1037 5 8.0467 0.01 0.254
2:35 am 02:35 Cloudy with Light Snow 19 -7 17 -8.4 90 90 NE 3 6 30.62 1037 5 8.0467 0.01 0.254
2:55 am 02:55 Cloudy with Light Snow 19 -7.1 17 -8.5 90 90 NE 5 7 30.62 1037 5 8.0467 0.01 0.254
3:15 am 03:15 Cloudy with Light Snow 19 -7.1 17 -8.5 90 90 ENE 3 6 30.62 1037 4 6.43736 0 0
3:35 am 03:35 Cloudy with Light Snow 19 -7.1 17 -8.5 90 90 ENE 3 6 30.62 1037 5 8.0467 0 0
3:55 am 03:55 Cloudy with Light Snow 19 -7.2 17 -8.5 91 91 NE 5 7 30.62 1037 7 11.26538 0 0
4:15 am 04:15 Cloudy with Light Snow 19 -7.2 17 -8.4 91 91 NE 6 9 30.62 1037 7 11.26538 0 0
4:35 am 04:35 Cloudy with Light Snow 19 -7.2 17 -8.5 91 91 ENE 6 9 30.62 1037 4 6.43736 0 0
4:55 am 04:55 Cloudy with Light Snow 18 -7.7 16 -9 91 91 ENE 5 7 30.62 1037 5 8.0467 0 0
5:15 am 05:15 Cloudy with Light Snow 18 -7.6 16 -8.8 91 91 NE 3 6 30.65 1038 10 16.0934 0 0
5:35 am 05:35 Cloudy with Light Snow 19 -7.5 16 -8.7 91 91 NE 5 7 30.65 1038 10 16.0934 0 0
5:55 am 05:55 Cloudy 19 -7.5 16 -8.7 91 91 ENE 6 9 30.65 1038 10 16.0934 0 0
6:15 am 06:15 Cloudy 19 -7.5 16 -8.8 91 91 NE 5 7 30.65 1038 10 16.0934 0 0
6:35 am 06:35 Cloudy with Light Snow 19 -7.5 15 -9.2 88 88 NE 8 13 30.65 1038 10 16.0934 0 0
6:55 am 06:55 Cloudy 18 -7.6 15 -9.3 88 88 NE 7 11 30.65 1038 10 16.0934 0 0
7:15 am 07:15 Cloudy with Light Snow 18 -7.6 15 -9.2 88 88 ENE 6 9 30.65 1038 10 16.0934 0 0
7:35 am 07:35 Cloudy with Light Snow 18 -7.6 16 -9 90 90 ENE 5 7 30.65 1038 10 16.0934 0 0
7:55 am 07:55 Cloudy with Light Snow 17 -8.1 13 -10.3 84 84 ENE 5 7 30.65 1038 10 16.0934 0 0
8:15 am 08:15 Cloudy with Light Snow 17 -8.2 14 -10.2 86 86 ENE 5 7 30.71 1040 10 16.0934 0 0
8:35 am 08:35 Cloudy with Light Snow 18 -8 14 -10 86 86 E 5 7 30.71 1040 10 16.0934 0 0
8:55 am 08:55 Cloudy with Light Snow 18 -8 14 -9.9 86 86 E 3 6 30.71 1040 10 16.0934 0 0
9:15 am 09:15 Cloudy with Light Snow 18 -7.8 15 -9.7 86 86 ESE 6 9 30.68 1039 5 8.0467 0 0
9:35 am 09:35 Cloudy with Light Snow 18 -7.6 14 -9.8 84 84 E 6 9 30.68 1039 7 11.26538 0 0
9:55 am 09:55 Cloudy with Light Snow 19 -7.5 15 -9.7 84 84 ESE 6 9 30.68 1039 5 8.0467 0 0
10:15 am 10:15 Cloudy with Light Snow 19 -7.2 16 -9.1 86 86 SE 6 9 30.68 1039 7 11.26538 0 0
10:35 am 10:35 Cloudy with Light Snow 19 -7.1 15 -9.6 83 83 SE 6 9 30.68 1039 10 16.0934 0 0
10:55 am 10:55 Cloudy with Light Snow 20 -6.8 15 -9.7 80 80 SSE 6 9 30.68 1039 10 16.0934 0 0
11:15 am 11:15 Cloudy with Light Snow 21 -6.3 15 -9.4 79 79 SSE 6 9 30.68 1039 10 16.0934 0 0
11:35 am 11:35 Mostly Cloudy 21 -6.2 15 -9.5 78 78 SSE 7 11 30.65 1038 10 16.0934 0 0
11:55 am 11:55 Cloudy 21 -6.2 16 -8.9 81 81 SSE 6 9 30.65 1038 10 16.0934 0 0
12:15 pm 12:15 Cloudy 22 -5.6 17 -8.1 83 83 S 8 13 30.65 1038 10 16.0934 0 0
12:35 pm 12:35 Cloudy 23 -5 18 -7.9 80 80 S 9 15 30.62 1037 10 16.0934 0 0
12:55 pm 12:55 Cloudy 24 -4.7 18 -7.7 80 80 S 8 13 30.62 1037 10 16.0934 0 0
1:15 pm 13:15 Cloudy 24 -4.4 18 -7.6 79 79 SSW 10 17 30.59 1036 10 16.0934 0 0
1:35 pm 13:35 Cloudy 25 -4.1 19 -7.5 77 77 S 7 11 30.59 1036 10 16.0934 0 0
1:55 pm 13:55 Cloudy 25 -3.7 19 -7.4 76 76 S 7 11 30.56 1035 10 16.0934 0 0
2:15 pm 14:15 Cloudy 26 -3.5 19 -7 77 77 S 8 13 30.53 1034 10 16.0934 0 0
2:35 pm 14:35 Cloudy 26 -3.1 20 -6.9 75 75 SSE 7 11 30.5 1033 10 16.0934 0 0
2:55 pm 14:55 Cloudy 27 -2.9 20 -6.8 75 75 SSE 8 13 30.5 1033 10 16.0934 0 0
3:15 pm 15:15 Cloudy 27 -2.6 20 -6.9 73 73 S 9 15 30.48 1032 10 16.0934 0 0
3:35 pm 15:35 Cloudy 28 -2.5 19 -7 72 72 S 12 19 30.48 1032 10 16.0934 0 0
3:55 pm 15:55 Cloudy 28 -2.5 19 -7 72 72 S 9 15 30.48 1032 10 16.0934 0 0
4:15 pm 16:15 Cloudy 28 -2.5 19 -7 72 72 S 9 15 30.45 1031 10 16.0934 0 0
4:35 pm 16:35 Cloudy 28 -2.4 19 -7.2 70 70 S 16 26 30.45 1031 10 16.0934 0 0
4:55 pm 16:55 Cloudy 28 -2.5 19 -7.1 71 71 SSE 13 20 30.45 1031 10 16.0934 0 0
5:15 pm 17:15 Partly Cloudy 27 -2.6 19 -7.3 70 70 S 10 17 30.42 1030 10 16.0934 0 0
5:35 pm 17:35 Sunny 27 -2.6 18 -7.7 68 68 S 13 20 30.42 1030 10 16.0934 0 0
5:55 pm 17:55 Sunny 27 -2.8 18 -7.8 69 69 S 13 20 30.42 1030 10 16.0934 0 0
6:15 pm 18:15 Clear 26 -3.3 18 -7.8 71 71 SSE 12 19 30.42 1030 10 16.0934 0 0
6:35 pm 18:35 Clear 25 -4 18 -7.7 76 76 SSE 12 19 30.39 1029 10 16.0934 0 0
6:55 pm 18:55 Clear 25 -4 18 -7.8 75 75 SSE 12 19 30.39 1029 10 16.0934 0 0
7:15 pm 19:15 Clear 24 -4.3 18 -7.9 76 76 SSE 10 17 30.42 1030 10 16.0934 0 0
7:35 pm 19:35 Clear 25 -4 18 -8 74 74 SSE 13 20 30.36 1028 10 16.0934 0 0
7:55 pm 19:55 Clear 25 -4.1 18 -8 75 75 SSE 14 22 30.36 1028 10 16.0934 0 0
8:15 pm 20:15 Clear 25 -4 17 -8.2 73 73 SSE 15 24 30.36 1028 10 16.0934 0 0
8:35 pm 20:35 Clear 25 -4.1 17 -8.5 72 72 S 16 26 30.36 1028 10 16.0934 0 0
8:55 pm 20:55 Clear 24 -4.3 17 -8.6 72 72 S 17 28 30.36 1028 10 16.0934 0 0
9:15 pm 21:15 Clear 24 -4.2 17 -8.6 72 72 SSE 17 28 30.33 1027 10 16.0934 0 0
9:35 pm 21:35 Clear 24 -4.3 17 -8.6 72 72 S 17 28 30.33 1027 10 16.0934 0 0
9:55 pm 21:55 Clear 24 -4.5 17 -8.5 74 74 S 15 24 30.3 1026 10 16.0934 0 0
10:15 pm 22:15 Clear 24 -4.5 17 -8.3 75 75 S 14 22 30.3 1026 10 16.0934 0 0
10:35 pm 22:35 Clear 25 -4.1 17 -8.4 72 72 S 16 26 30.3 1026 10 16.0934 0 0
10:55 pm 22:55 Clear 25 -4 17 -8.6 71 71 S 21 33 30.3 1026 10 16.0934 0 0
11:15 pm 23:15 Clear 25 -4.1 16 -8.7 71 71 S 17 28 30.27 1025 10 16.0934 0 0
11:35 pm 23:35 Clear 24 -4.5 16 -8.8 72 72 S 15 24 30.27 1025 10 16.0934 0 0
11:55 pm 23:55 Clear 23 -4.8 16 -9 73 73 S 15 24 30.27 1025 10 16.0934 0 0

Powered by AerisWeather